LiveATC.Net - Listen to live air traffic control over the Internet!


ICAO: ENVA  IATA: TRD   Airport: Vaernes Airport
City: Trondheim
Country: Norway   Continent: Europe
ENVA METAR Weather: ENVA 081420Z 17024G34KT CAVOK 07/M03 Q1010 NOSIG RMK WIND 670FT 18031G45KT
ENVA ADS-B Flight Tracking  (ADSBExchange)
ENVA Flight Activity (FlightAware)

ENVA Gnd/Twr/App
Feed Status: UP   Listeners: 3
Listen in your browser - HTML5 player (in browser, HTML5)
Click here to listen with your own player (launches your MP3 player)
Archive Access: ENVA Gnd/Twr/App
FacilityFrequency
Trondheim Approach118.600
Trondheim Ground121.600
Trondheim Tower119.400

NOTICE

Unauthorized use prohibited. See LiveATC.net Terms of Service


Airport/ARTCC Code
Frequency Search
(e.g., 124.400, 128.75)
Site-wide search
 


Browse Feeds
Top 50 Feeds
HF Oceanic Feeds
Coverage Map
Bad Weather Areas

LiveATC FAQ
Offer LiveATC feed
Contact LiveATC.net
Press Inquiries

LiveATC on iPhone
LiveATC on Android

LiveATC Mobile
(Mobile browser)

ATC Audio Archives
Interesting Recordings

LiveATC Forums


Home Page
About LiveATC.net


Terms of Use
Privacy Policy

AIRMETs/SIGMETs

FAA Airport Status
NAS Status
Arrival Demand


Server Software By:
Icecast.org
Liquidsoap